User: anonymous   Login
Location: Les Gen�tes
(46.3104°N, 1.5969°E)
Time: 17:46:37
(UTC+00:00)
Language:

Cosmos 1606 Rocket - Orbit

View from above orbital plane
View from above orbital plane
View from above satellite
View from above satellite

Ground track
Ground track

The orbit data is extracted from the following two-line orbital elements,

1 15370U 84111B   20227.86190507  .00000054  00000-0  35858-5 0  9993
2 15370  82.5181   4.9605 0020268 202.4891 157.5438 14.83723792935388
Epoch (UTC): 14 August 2020 20:41:08
Eccentricity: 0.0020268
inclination: 82.5181°
perigee height: 603 km
apogee height: 632 km
right ascension of ascending node: 4.9605°
argument of perigee: 202.4891°
revolutions per day: 14.83723792
mean anomaly at epoch: 157.5438°
orbit number at epoch: 93538

The dashed part of the orbit path shows where the satellite is in the earth's shadow,  

DLR